SCP
0 0 0 0 0 0 0 0 0 0 0 0 0 0 0 0 0 0 0 0 0 0
0 0 0 0 0 0 0 0 0 0 0 0 0 0 0 0 0 0 0 0 0 0
0 0 0 0 0 0 0 0 0 0 0 0 0 0 0 0 0 0 0 0 0 0
0 0 0 0 0 0 0 0 0 0 0 0 0 0 0 0 0 0 0 0 0 0
0 0 0 0 0 0 0 0 0 0 0 0 0 0 0 0 0 0 0 0 0 0
0 0 0 0 0 0 0 0 0 0 0 0 0 0 0 0 0 0 0 0 0 0
0 0 0 0 0 0 0 0 0 0 0 0 0 0 0 0 0 0 0 0 0 0
0 0 0 0 0 0 0 0 0 0 0 0 0 0 0 0 0 0 0 0 0 -0
0 0 0 0 0 0 0 0 0 0 0 0 0 0 0 0 0 0 0 0 0 -0
0 0 0 0 0 0 0 0 0 0 0 0 0 0 0 0 0 0 0 0 0 -0
0 0 0 0 0 0 0 0 0 0 0 0 0 0 0 0 0 0 0 0 0 -0
0 0 0 0 0 0 0 0 0 -0 0 0 0 0 0 0 0 0 0 0 0 0
0 0 0 0 0 0 0 0 0 -0 0 0 0 0 0 0 0 -0 -0 0 0 0
0 0 0 0 0 0 0 0 -0 -0 0 0 0 0 0 -0 0 0 0 0 0 0
Wind_Speed_500mb
68 75 82 87 89 93 97 102 106 107 103 98 86 93 90 91 92 86 78 87 72 77
72 77 82 85 88 92 94 101 107 104 105 96 92 92 74 77 71 73 90 92 72 81
77 80 83 88 90 91 96 102 107 107 105 94 92 91 87 76 83 87 84 72 83 76
78 81 85 89 90 93 99 103 107 105 103 95 93 85 78 86 87 73 84 90 88 70
79 83 86 90 91 92 100 103 105 103 101 93 88 82 81 81 69 77 79 81 88 78
81 86 89 91 93 97 101 102 102 97 96 88 83 80 74 69 71 69 72 71 80 85
85 91 94 95 97 99 99 100 97 91 88 80 78 74 71 74 82 78 68 70 85 88
85 89 92 95 98 101 98 96 92 86 81 77 73 71 64 62 66 64 68 70 78 89
85 89 93 95 98 98 97 95 91 86 83 83 78 68 63 62 68 71 71 71 69 84
83 88 90 93 95 97 97 97 92 83 77 73 70 67 65 64 67 71 76 77 73 80
80 85 89 90 93 98 95 94 90 82 72 73 71 67 67 66 66 70 74 74 69 74
78 83 87 90 94 94 94 93 86 76 72 70 69 66 69 62 65 69 71 71 81 66
76 78 83 88 90 91 88 87 80 75 69 66 70 65 59 55 57 67 63 61 64 62
71 74 81 85 86 90 87 88 82 79 75 74 65 62 55 68 48 57 57 56 55 53
Wind_Direction_500mb
321 322 322 321 322 320 318 320 320 316 313 309 304 293 289 278 272 260 256 257 262 261
323 322 321 321 322 321 319 319 316 313 312 306 300 294 291 280 281 266 252 253 253 256
323 324 323 322 323 321 320 318 316 313 310 300 291 290 289 283 271 263 256 260 251 261
325 324 325 323 324 324 320 319 314 311 305 294 287 286 284 274 279 270 263 248 246 256
327 327 325 325 325 324 320 319 315 306 300 293 289 283 282 281 277 271 263 255 253 250
328 326 327 327 326 325 323 318 314 306 301 296 291 287 283 279 275 274 265 259 250 248
330 330 329 329 328 326 324 319 315 309 303 298 295 288 282 269 269 263 261 260 252 245
331 328 330 329 329 328 326 322 318 311 308 305 300 293 287 283 280 274 259 265 258 246
331 332 331 331 331 329 329 326 322 318 308 302 301 296 283 277 274 272 264 262 264 251
332 331 333 333 333 334 334 329 321 316 311 309 308 297 286 278 271 268 261 255 260 258
332 332 334 335 337 339 334 329 326 322 318 316 316 301 292 282 273 267 266 259 253 261
334 335 336 339 343 339 335 334 330 325 320 320 320 319 306 288 274 267 262 254 247 254
338 338 339 345 344 340 340 335 334 332 329 323 324 320 322 307 274 270 268 262 249 256
340 342 346 346 347 345 342 340 339 336 335 328 325 326 328 345 283 265 268 264 255 259
Wind_Speed_850mb
68 75 82 87 89 93 97 102 106 107 103 98 86 93 90 91 92 86 78 87 72 77
72 77 82 85 88 92 94 101 107 104 105 96 92 92 74 77 71 73 90 92 72 81
77 80 83 88 90 91 96 102 107 107 105 94 92 91 87 76 83 87 84 72 83 76
78 81 85 89 90 93 99 103 107 105 103 95 93 85 78 86 87 73 84 90 88 70
79 83 86 90 91 92 100 103 105 103 101 93 88 82 81 81 69 77 79 81 88 78
81 86 89 91 93 97 101 102 102 97 96 88 83 80 74 69 71 69 72 71 80 85
85 91 94 95 97 99 99 100 97 91 88 80 78 74 71 74 82 78 68 70 85 88
85 89 92 95 98 101 98 96 92 86 81 77 73 71 64 62 66 64 68 70 78 89
85 89 93 95 98 98 97 95 91 86 83 83 78 68 63 62 68 71 71 71 69 84
83 88 90 93 95 97 97 97 92 83 77 73 70 67 65 64 67 71 76 77 73 80
80 85 89 90 93 98 95 94 90 82 72 73 71 67 67 66 66 70 74 74 69 74
78 83 87 90 94 94 94 93 86 76 72 70 69 66 69 62 65 69 71 71 81 66
76 78 83 88 90 91 88 87 80 75 69 66 70 65 59 55 57 67 63 61 64 62
71 74 81 85 86 90 87 88 82 79 75 74 65 62 55 68 48 57 57 56 55 53
Wind_Direction_850mb
321 322 322 321 322 320 318 320 320 316 313 309 304 293 289 278 272 260 256 257 262 261
323 322 321 321 322 321 319 319 316 313 312 306 300 294 291 280 281 266 252 253 253 256
323 324 323 322 323 321 320 318 316 313 310 300 291 290 289 283 271 263 256 260 251 261
325 324 325 323 324 324 320 319 314 311 305 294 287 286 284 274 279 270 263 248 246 256
327 327 325 325 325 324 320 319 315 306 300 293 289 283 282 281 277 271 263 255 253 250
328 326 327 327 326 325 323 318 314 306 301 296 291 287 283 279 275 274 265 259 250 248
330 330 329 329 328 326 324 319 315 309 303 298 295 288 282 269 269 263 261 260 252 245
331 328 330 329 329 328 326 322 318 311 308 305 300 293 287 283 280 274 259 265 258 246
331 332 331 331 331 329 329 326 322 318 308 302 301 296 283 277 274 272 264 262 264 251
332 331 333 333 333 334 334 329 321 316 311 309 308 297 286 278 271 268 261 255 260 258
332 332 334 335 337 339 334 329 326 322 318 316 316 301 292 282 273 267 266 259 253 261
334 335 336 339 343 339 335 334 330 325 320 320 320 319 306 288 274 267 262 254 247 254
338 338 339 345 344 340 340 335 334 332 329 323 324 320 322 307 274 270 268 262 249 256
340 342 346 346 347 345 342 340 339 336 335 328 325 326 328 345 283 265 268 264 255 259